Regional Weather Roundup
Issued by NWS

Home | Current Version | Previous Version | Text Only | Print | Product List | Glossary On
Versions: 1 2 3 4 5 6 7 8 9 10 11 12 13 14 15 16 17 18 19 20 21 22 23 24 25 26 27 28 29 30 31 32 33 34 35 36 37 38 39 40 41 42 43 44 45 46 47 48 49 50
000
ASUS45 KPSR 282210
RWRAZ

ARIZONA HOURLY REGIONAL WEATHER ROUNDUP
NATIONAL WEATHER SERVICE PHOENIX AZ
300 PM MST SAT MAY 28 2016

NOTE: FAIR INDICATES FEW OR NO CLOUDS BELOW 12,000 FEET WITH NO
SIGNIFICANT WEATHER AND/OR OBSTRUCTIONS TO VISIBILITY.

AZZ001>003-036-282300-
NORTHWEST ARIZONA

CITY           SKY/WX    TMP DP  RH WIND       PRES   REMARKS
BULLHEAD CITY  MOSUNNY   95  27   8 S12       29.73F
KINGMAN        MOSUNNY   87  27  11 SW18G25   29.89F
$$

AZZ004>008-015-016-018-282300-
NORTH CENTRAL ARIZONA

CITY           SKY/WX    TMP DP  RH WIND       PRES   REMARKS
GRAND CANYON   CLOUDY    68  28  22 NW6       30.10S
WILLIAMS       MOSUNNY   70  25  18 S9        30.15F
PRESCOTT       MOSUNNY   79  21  11 E12G18    29.98F
FLAGSTAFF      PTSUNNY   66  27  23 VRB5      30.11F
PAYSON         SUNNY     79  18  10 SW9G16    30.02F
PAGE           SUNNY     83  27  13 VRB7      29.94F
$$

AZZ009>014-017-282300-
NORTHEAST ARIZONA

CITY           SKY/WX    TMP DP  RH WIND       PRES   REMARKS
WINSLOW        SUNNY     82  16   8 CALM      29.97F
SAINT JOHNS    SUNNY     79  20  11 VRB7      29.99S
WINDOW ROCK    MOSUNNY   75  19  12 SW7       30.09F
SHOW LOW       MOSUNNY   73  18  12 S13G24    30.07F
$$

AZZ023-282300-
GREATER PHOENIX AREA

CITY           SKY/WX    TMP DP  RH WIND       PRES   REMARKS
PHOENIX        MOSUNNY   96  27   8 SW13G18   29.74F
BUCKEYE        SUNNY     93  28  10 CALM      29.77F
GLENDALE       SUNNY     97  25   7 VRB6      29.77F
LUKE AFB       SUNNY     95  26   8 NW8       29.74F
DEER VALLEY    SUNNY     93  25   8 E7G22     29.77F
SCOTTSDALE     SUNNY     94  24   8 VRB7      29.79F
MESA-FALCON    SUNNY    N/A N/A N/A S9        29.75S
MESA-GATEWAY   SUNNY     93  28  10 S8        29.77F
CHANDLER       SUNNY     95  27   8 NE6       29.75F
$$

AZZ027-028-282300-
SOUTHWEST MARICOPA COUNTY AND PINAL COUNTY

CITY           SKY/WX    TMP DP  RH WIND       PRES   REMARKS
CASA GRANDE    SUNNY     93  30  10 W7        29.78F
GILA BEND      FAIR      95  28   9 VRB3      29.73F
$$

AZZ503-504-507>509-282300-
SOUTHEAST ARIZONA

CITY           SKY/WX    TMP DP  RH WIND       PRES   REMARKS
TUCSON         SUNNY     93   9   4 S13       29.84F
DAVIS-MONTHAN  SUNNY     92  12   5 S12       29.83F
RYAN FIELD     SUNNY     93  16   6 SW14G20   29.83F
NOGALES        SUNNY     87   6   4 SW15G26   29.93F
SIERRA VISTA   SUNNY     85   6   5 S20G25    29.97F
DOUGLAS        SUNNY     87  14   6 SE9G23    29.93F
SAFFORD        SUNNY     90  17   7 VRB3      29.84F
$$

AZZ020-021-025-026-031-282300-
SOUTHWEST ARIZONA

CITY           SKY/WX    TMP DP  RH WIND       PRES   REMARKS
YUMA           SUNNY     96  36  12 S20G26    29.74F
$$

CAZ031-033-041-043-047-048-061-282300-
SOUTHERN CALIFORNIA

CITY           SKY/WX    TMP DP  RH WIND       PRES   REMARKS
DOWNTOWN L.A.  SUNNY     70  56  61 VRB3      29.87S
L.A. AIRPORT   PTSUNNY   66  56  70 W16       29.88F
SAN DIEGO      PTSUNNY   66  56  70 W10       29.91S
BURBANK        SUNNY     74  56  53 S8G16     29.85F
ONTARIO        PTSUNNY   78  51  38 W10       29.84F
RIVERSIDE      SUNNY     81  52  36 W9G21     29.83F
PALM SPRINGS   SUNNY     93  31  11 SE12      29.76F
EL CENTRO NAS  MOSUNNY   94  36  13 SE13      29.72F
IMPERIAL       SUNNY     95  43  16 MISG      29.70F
BLYTHE         SUNNY     96  35  11 S16G30    29.73F
NEEDLES        SUNNY     97  26   8 SW10      29.74F
$$

NVZ020-UTZ003-282300-
SOUTHERN NEVADA-UTAH

CITY           SKY/WX    TMP DP  RH WIND       PRES   REMARKS
LAS VEGAS      PTSUNNY   90  27  10 SE7       29.77F
SALT LAKE CITY MOSUNNY   74  40  29 N15       30.01S
$$

NMZ009-TXZ055-282300-
NEW MEXICO-WEST TEXAS

CITY           SKY/WX    TMP DP  RH WIND       PRES   REMARKS
ALBUQUERQUE    MOSUNNY   78  22  12 CALM      30.05F
EL PASO        MOSUNNY   92  -2   3 SW14G22   29.93F
$$


........................KEY........................
SKY/WX - SKY CONDITION/WEATHER
TMP    - TEMPERATURE IN FAHRENHEIT
DP     - DEW POINT IN FAHRENHEIT
RH     - RELATIVE HUMIDITY IN PERCENT
WIND   - DIRECTION AND SPEED IN MILES PER HOUR (MPH)
VRB    - VARIABLE WIND DIRECTION
PRES   - MEAN SEA LEVEL PRESSURE IN INCHES OF MERCURY
         F - FALLING PRESSURE   R - RISING PRESSURE
         S - STEADY PRESSURE
VSB    - VISIBILITY IN MILES
HX     - HEAT INDEX IN FAHRENHEIT
WCI    - WIND CHILL INDEX IN FAHRENHEIT
TC     - TEMPERATURE IN CELSIUS WHICH IS ALSO KNOWN AS
         TEMPERATURE IN CENTIGRADE
AFB    - AIR FORCE BASE
         LUKE AFB IS LUKE AIR FORCE BASE
         DAVIS-MONTHAN IS DAVIS-MONTHAN AIR FORCE BASE
NAS    - NAVAL AIR STATION
         EL CENTRO NAS IS EL CENTRO NAVAL AIR STATION
N/A    - NOT AVAILABLE




USA.gov is the U.S. government's official web portal to all federal, state and local government web resources and services.